sat.trackr.live / text

‹ back to catalog

GONETS-M 21

NORAD 47228 · 2020-091B

PAYLOAD ACTIVE UNKNOWN

§ Identity

Operator
Country
CIS
Launch date
2020-12-03
Launch site
PLMSC
Launch vehicle
Mass (kg)
RCS (m²)

External: N2YO · Heavens-Above · Gunter

§ Orbital elements

Epoch: 2026-09-20T04:59:19.510080Z

Period
115.86 min
Inclination
82.4928°
Eccentricity
0.0014714
Mean motion
12.42888817 rev/d
Perigee alt
1,482.8 km
Apogee alt
1,506.0 km
Semi-major
7,872.5 km
B*
-1.1445e-4
RAAN
242.0069°
Arg perigee
353.3350°
Mean anomaly
6.7531°
Rev number
26,287

§ Raw data

GONETS-M 211 47228U 20091B   26263.20786470 -.00000006  00000+0 -11445-3 0  99932 47228  82.4928 242.0069 0014714 353.3350   6.7531 12.42888817262876

JSON: /api/v1/satellites/47228 · /tle

For live sub-satellite position, see the globe view (requires WebGL).

§ Visibility from observer

Set your observer location to see the next 7 days of passes ≥ 10°. The values pass through the URL so the page stays shareable.

No JS? Fill the form by hand. The geolocation button needs JavaScript.

§ Radio — SatNOGS DB

ModeDescriptionDownlinkUplink
FM UHF Unknown 388.787 MHz
FM UHF Unknown 262.910 MHz

2 transmitters · refreshed weekly from db.satnogs.org